Sigfox identifier Datetime Temperature Humidity SNR
00393914 2018-10-09 08:10:18 20.8 39 16
00393914 2018-10-09 07:09:09 20.8 39 16.2
00393914 2018-10-09 06:08:00 20.8 38 16.5
00393914 2018-10-09 05:06:50 20.8 38 16.8
00393914 2018-10-09 00:01:03 20.8 37 17.1
00393914 2018-10-08 22:59:56 20.8 37 17.3
00393914 2018-10-08 20:57:44 20.8 37 17.4
00393914 2018-10-08 16:53:02 20.6 36 17.5
00393914 2018-10-08 15:51:53 20.6 36 17.8
00393914 2018-10-08 12:48:28 20.4 35 17.7
00393914 2018-10-08 11:47:16 20.2 34 17.9
00393914 2018-10-08 10:46:07 19.9 33 17.9
00393914 2018-10-08 09:44:56 19.9 33 18
00393914 2018-10-08 08:43:48 19.9 33 18.1
00393914 2018-10-08 07:42:37 20 34 17.9
00393914 2018-10-08 06:41:25 20 35 17.7
00393914 2018-10-08 05:40:16 20 35 17.5
00393914 2018-10-08 04:39:10 20.1 35 17.5
00393914 2018-10-08 03:37:54 20 36 17.5
00393914 2018-10-08 02:36:44 20.2 36 17.3
00393914 2018-10-08 01:35:33 20.2 37 17.1
00393914 2018-10-08 00:34:22 20.2 37 17.1
00393914 2018-10-07 23:33:15 20.2 37 16.9
00393914 2018-10-07 22:32:13 20.2 38 17
00393914 2018-10-07 21:31:07 20.3 38 17.1
00393914 2018-10-07 20:30:03 20.3 38 17.1
00393914 2018-10-07 19:28:57 20.3 38 16.8
00393914 2018-10-07 18:27:49 20.2 38 16.5
00393914 2018-10-07 17:26:42 20.3 38 16.2
00393914 2018-10-07 16:25:36 20.2 38 16.3
00393914 2018-10-07 15:24:29 20.3 38 16.1
00393914 2018-10-07 14:23:23 20.3 38 16.1
00393914 2018-10-07 13:22:18 20.4 38 16.3
00393914 2018-10-07 12:21:13 20.3 38 15.9
00393914 2018-10-07 11:20:07 20.3 38 15.8
00393914 2018-10-07 10:19:00 20.3 38 15.7
00393914 2018-10-07 09:17:54 20.4 38 15.7
00393914 2018-10-07 08:16:51 20.4 39 15.6
00393914 2018-10-07 07:15:49 20.4 39 15.6
00393914 2018-10-07 06:14:44 20.4 39 15.9
00393914 2018-10-07 05:13:38 20.4 39 18.9
00393914 2018-10-07 04:12:34 20.4 39 19
00393914 2018-10-07 03:11:33 20.4 39 18.9
00393914 2018-10-07 02:10:29 20.5 39 18.7
00393914 2018-10-07 01:09:22 20.5 39 18.8
00393914 2018-10-07 00:08:18 20.6 39 18.8
00393914 2018-10-06 23:07:16 20.6 39 18.8
00393914 2018-10-06 22:06:11 20.6 39 18.8
00393914 2018-10-06 21:05:09 20.6 39 18.9
00393914 2018-10-06 20:04:06 20.6 39 18.8
00393914 2018-10-06 19:03:05 20.6 39 18.9
00393914 2018-10-06 18:02:04 20.6 39 18.9
00393914 2018-10-06 17:01:04 20.6 39 19.1
00393914 2018-10-06 16:00:02 20.6 40 19
00393914 2018-10-06 14:58:58 20.6 40 19.1
00393914 2018-10-06 13:57:57 20.6 39 19.1
00393914 2018-10-06 12:56:54 20.6 39 19
00393914 2018-10-06 11:55:49 20.6 39 18.8
00393914 2018-10-06 10:54:42 20.6 39 18.8
00393914 2018-10-06 09:53:38 20.6 39 18.8
00393914 2018-10-06 07:51:32 20.7 40 18.7
00393914 2018-10-06 06:50:28 20.8 40 18.6
00393914 2018-10-06 05:49:24 20.8 40 18.5
00393914 2018-10-06 04:48:21 20.8 41 18.3
00393914 2018-10-06 03:47:12 20.8 41 18.1
00393914 2018-10-06 02:46:08 20.8 41 14.1
00393914 2018-10-06 01:44:58 20.9 41 13.8
00393914 2018-10-06 00:43:52 21 42 13.7
00393914 2018-10-05 23:42:47 21 42 13.7
00393914 2018-10-05 22:41:38 21 42 13.6
00393914 2018-10-05 21:40:31 21.1 43 13.9
00393914 2018-10-05 20:39:25 21.2 43 13.4
00393914 2018-10-05 19:38:14 21.2 43 13.3
00393914 2018-10-05 18:37:03 21.2 43 13
00393914 2018-10-05 17:35:54 21.3 44 13.2
00393914 2018-10-05 16:34:44 21.2 44 12.5
00393914 2018-10-05 14:32:30 21.2 43 12.7
00393914 2018-10-05 13:31:20 21.2 44 12.2
00393914 2018-10-05 12:30:13 21 44 12.3
00393914 2018-10-05 11:29:10 21 42 11.7
00393914 2018-10-05 08:25:50 20.4 32 11.8
00393914 2018-10-05 07:24:45 20.4 30 11.8
00393914 2018-10-05 06:23:38 20.4 30 11.8
00393914 2018-10-05 05:22:33 20.5 30 11.9
00393914 2018-10-05 04:21:26 20.5 30 11.8
00393914 2018-10-05 02:19:09 20.6 30 12.3
00393914 2018-10-05 01:18:03 20.8 30 13.6
00393914 2018-10-04 23:15:52 21 30 14.5
00393914 2018-10-04 22:14:49 21 30 14.9
00393914 2018-10-04 21:13:44 21.2 29 14.8
00393914 2018-10-04 20:12:40 21.4 29 14.8
00393914 2018-10-04 19:11:37 21.4 28 14.7
00393914 2018-10-04 17:09:30 21.9 29 15.1
00393914 2018-10-04 16:08:27 21.4 30 15.3
00393914 2018-10-04 14:06:21 20.6 31 15.1
00393914 2018-10-04 13:05:16 20.6 31 15.1
00393914 2018-10-04 09:00:51 20.1 34 15.5
00393914 2018-10-04 06:58:40 20.2 37 15.8
00393914 2018-10-04 05:57:28 20.2 37 16
00393914 2018-10-04 04:56:22 20.2 38 16.3
00393914 2018-10-04 03:55:19 20.2 38 16.4
00393914 2018-10-04 02:54:15 20.3 38 16.5
00393914 2018-10-04 01:53:07 20.4 39 16.6
00393914 2018-10-04 00:51:58 20.4 39 16.9
00393914 2018-10-03 23:50:49 20.4 40 17
00393914 2018-10-03 22:49:43 20.5 40 17.1
00393914 2018-10-03 21:48:40 20.6 40 17.1
00393914 2018-10-03 20:47:33 20.6 41 17.1
00393914 2018-10-03 19:46:28 20.6 41 17.1
00393914 2018-10-03 18:45:24 20.6 41 17.2
00393914 2018-10-03 17:44:13 20.6 42 17.3
00393914 2018-10-03 16:43:06 20.6 43 16.9
00393914 2018-10-03 14:40:52 20.6 43 16.6
00393914 2018-10-03 13:39:43 20.6 42 16.5
00393914 2018-10-03 12:38:32 20.4 41 16.7
00393914 2018-10-03 10:36:17 20.4 41 16.8
00393914 2018-10-03 09:35:09 20.2 41 17
00393914 2018-10-03 08:34:03 20.2 39 16.9
00393914 2018-10-03 07:32:57 20.2 40 16.9
00393914 2018-10-03 06:31:49 20.2 40 17.1
00393914 2018-10-03 05:30:43 20.2 41 17.2
00393914 2018-10-03 04:29:39 20.4 41 17
00393914 2018-10-03 03:28:36 20.3 41 16.9
00393914 2018-10-03 02:27:29 20.4 41 16.8
00393914 2018-10-03 01:26:24 20.4 41 16.5
00393914 2018-10-03 00:25:20 20.4 41 16.4
00393914 2018-10-02 23:24:11 20.5 41 16.2
00393914 2018-10-02 22:23:03 20.5 41 16.1
00393914 2018-10-02 21:21:57 20.6 40 15.4
00393914 2018-10-02 20:20:50 20.6 40 15.1
00393914 2018-10-02 19:19:43 20.6 40 14.7
00393914 2018-10-02 18:18:37 20.8 40 15.4
00393914 2018-10-02 17:17:31 20.8 42 16.4
00393914 2018-10-02 16:16:19 20.9 41 17.6
00393914 2018-10-02 15:15:11 21 41 18.8
00393914 2018-10-02 14:14:00 20.4 45 0